GW3251 Weather Reports


Display with metric or nautical units.
time (UTC)temp
F
wind
direction
speed
MPH
gust
MPH
rain 1hr
in
rain 24hr
in
rain mn
in
humidity
%
barometer
mb
20260510082038 69 0 0.0 0.0 0.00 0.00 0.00 92 1010.8
20260510081545 69 0 0.0 0.0 0.00 0.00 0.00 92 1010.9
20260510081038 69 0 0.0 0.0 0.00 0.00 0.00 92 1011.0
20260510080538 70 0 0.0 0.0 0.00 0.00 0.00 93 1011.0
20260510080050 70 0 0.0 0.0 0.00 0.00 0.00 92 1011.1
20260510075539 70 0 0.0 0.0 0.00 0.00 0.00 92 1010.9
20260510075043 70 0 0.0 0.0 0.00 0.00 0.00 92 1011.0
20260510074549 70 0 0.0 0.0 0.00 0.00 0.00 92 1011.0
20260510074038 70 0 0.0 0.0 0.00 0.00 0.00 92 1011.0
20260510073541 70 0 0.0 0.0 0.00 0.00 0.00 92 1011.1
20260510073047 70 0 0.0 0.0 0.00 0.00 0.00 92 1011.1
20260510072537 70 0 0.0 0.0 0.00 0.00 0.00 92 1011.0
20260510072037 70 0 0.0 0.0 0.00 0.00 0.00 92 1011.1
20260510071554 71 0 0.0 0.0 0.00 0.00 0.00 91 1011.2
20260510071037 71 0 0.0 0.0 0.00 0.00 0.00 91 1011.1
20260510070537 71 0 0.0 0.0 0.00 0.00 0.00 91 1011.3
20260510070052 71 0 0.0 0.0 0.00 0.00 0.00 91 1011.1
20260510065537 71 0 0.0 0.0 0.00 0.00 0.00 91 1011.2
20260510065037 71 0 0.0 0.0 0.00 0.00 0.00 91 1011.2
20260510064543 71 0 0.0 0.0 0.00 0.00 0.00 91 1011.2
20260510064037 71 0 0.0 0.0 0.00 0.00 0.00 90 1011.1
20260510063537 71 0 0.0 0.0 0.00 0.00 0.00 90 1011.2
20260510063047 71 0 0.0 0.0 0.00 0.00 0.00 90 1011.1
20260510062540 72 0 0.0 0.0 0.00 0.00 0.00 90 1011.2
20260510062037 72 0 0.0 0.0 0.00 0.00 0.00 90 1011.3
20260510061552 72 0 0.0 0.0 0.00 0.00 0.00 90 1011.3
20260510061037 72 0 0.0 0.0 0.00 0.00 0.00 89 1011.3
20260510060537 72 0 0.0 0.0 0.00 0.00 0.00 89 1011.3
20260510060049 72 0 0.0 0.0 0.00 0.00 0.00 89 1011.3
20260510055539 72 0 0.0 0.0 0.00 0.00 0.00 89 1011.2
20260510055037 72 0 0.0 0.0 0.00 0.00 0.00 89 1011.3
20260510054546 72 0 0.0 0.0 0.00 0.00 0.00 88 1011.4
20260510054036 72 0 0.0 6.0 0.00 0.00 0.00 88 1011.3
20260510053536 72 0 0.0 6.0 0.00 0.00 0.00 88 1011.2
20260510053058 72 0 0.0 6.0 0.00 0.00 0.00 87 1011.4
20260510052537 73 0 0.0 0.0 0.00 0.00 0.00 87 1011.4
20260510052037 73 0 0.0 0.0 0.00 0.00 0.00 87 1011.4
20260510051549 73 0 0.0 0.0 0.00 0.00 0.00 86 1011.4
20260510051037 73 0 0.0 0.0 0.00 0.00 0.00 85 1011.5
20260510050537 73 0 0.0 0.0 0.00 0.00 0.00 85 1011.6
20260510050055 73 0 0.0 0.0 0.00 0.00 0.00 84 1011.5
20260510045537 73 0 0.0 0.0 0.00 0.00 0.00 84 1011.4
20260510045037 74 0 0.0 9.0 0.00 0.00 0.00 82 1011.5
20260510044557 74 0 0.0 9.0 0.00 0.00 0.00 82 1011.5
20260510044038 74 0 0.0 9.0 0.00 0.00 0.00 81 1011.4
20260510043538 74 0 1.0 8.0 0.00 0.00 0.00 80 1011.4
20260510043100 74 0 0.0 5.0 0.00 0.00 0.00 80 1011.4
20260510042539 74 0 0.0 5.0 0.00 0.00 0.00 80 1011.6
20260510042044 74 0 0.0 0.0 0.00 0.00 0.00 80 1011.6
20260510041546 74 0 0.0 1.0 0.00 0.00 0.00 82 1011.4
20260510041038 74 0 0.0 3.0 0.00 0.00 0.00 85 1011.4
20260510040538 73 0 0.0 3.0 0.00 0.00 0.00 88 1011.4
20260510040050 72 0 0.0 0.0 0.00 0.00 0.00 88 1011.5
20260510035538 72 0 0.0 0.0 0.00 0.00 0.00 89 1011.2
20260510035038 72 0 0.0 0.0 0.00 0.00 0.00 89 1011.0
20260510034547 71 0 0.0 0.0 0.00 0.00 0.00 89 1011.0
20260510034038 71 0 0.0 0.0 0.00 0.00 0.00 89 1011.1
20260510033537 71 0 0.0 0.0 0.00 0.00 0.00 89 1011.1
20260510033101 71 0 0.0 0.0 0.00 0.00 0.00 89 1010.8
20260510032537 71 0 0.0 0.0 0.00 0.00 0.00 89 1010.7
20260510032039 72 0 0.0 0.0 0.00 0.00 0.00 89 1010.7
20260510031550 72 0 0.0 0.0 0.00 0.00 0.00 89 1010.6
20260510031039 72 0 0.0 0.0 0.00 0.00 0.00 89 1010.5
20260510030542 72 0 0.0 0.0 0.00 0.00 0.00 88 1010.3
20260510030049 72 0 0.0 0.0 0.00 0.00 0.00 88 1010.3
20260510025538 72 0 0.0 0.0 0.00 0.00 0.00 88 1010.2
20260510025038 72 0 0.0 0.0 0.00 0.00 0.00 88 1010.2
20260510024549 72 0 0.0 0.0 0.00 0.00 0.00 87 1010.2
20260510024038 72 0 0.0 0.0 0.00 0.00 0.00 87 1010.0
20260510023538 73 0 0.0 0.0 0.00 0.00 0.00 87 1009.9
20260510023048 73 0 0.0 0.0 0.00 0.00 0.00 87 1009.9
20260510022538 73 0 0.0 0.0 0.00 0.00 0.00 87 1009.8
20260510022039 73 0 0.0 0.0 0.00 0.00 0.00 86 1009.7
20260510021552 73 0 0.0 0.0 0.00 0.00 0.00 86 1009.7
20260510021037 73 0 0.0 0.0 0.00 0.00 0.00 85 1009.7
20260510020538 73 0 0.0 0.0 0.00 0.00 0.00 85 1009.6
20260510020049 74 0 0.0 0.0 0.00 0.00 0.00 85 1009.7
20260510015540 74 0 0.0 0.0 0.00 0.00 0.00 84 1009.6
20260510015038 74 0 0.0 0.0 0.00 0.00 0.00 84 1009.6
20260510014550 74 0 0.0 0.0 0.00 0.00 0.00 84 1009.5
20260510014038 75 0 0.0 0.0 0.00 0.00 0.00 84 1009.3
20260510013538 75 0 0.0 0.0 0.00 0.00 0.00 84 1009.3
20260510013050 75 0 0.0 0.0 0.00 0.00 0.00 83 1009.1
20260510012541 76 0 0.0 0.0 0.00 0.00 0.00 82 1009.0
20260510012038 76 0 0.0 0.0 0.00 0.00 0.00 82 1008.8
20260510011550 77 0 0.0 0.0 0.00 0.00 0.00 81 1008.8
20260510011037 77 0 0.0 0.0 0.00 0.00 0.00 80 1008.9
20260510010538 78 0 0.0 0.0 0.00 0.00 0.00 80 1009.0
20260510010046 79 0 0.0 0.0 0.00 0.00 0.00 80 1008.9
20260510005539 79 0 0.0 1.0 0.00 0.00 0.00 79 1008.8
20260510005038 80 0 0.0 6.0 0.00 0.00 0.00 80 1008.7
20260510004546 80 0 0.0 6.0 0.00 0.00 0.00 81 1008.6
20260510004038 80 0 0.0 6.0 0.00 0.00 0.00 81 1008.6
20260510003539 81 0 0.0 0.0 0.00 0.00 0.00 81 1008.5
20260510003045 81 0 0.0 0.0 0.00 0.00 0.00 80 1008.4
20260510002541 82 0 0.0 0.0 0.00 0.00 0.00 80 1008.4
20260510002038 82 0 0.0 0.0 0.00 0.00 0.00 79 1008.3
20260510001549 82 0 0.0 0.0 0.00 0.00 0.00 79 1008.3
20260510001039 83 0 0.0 0.0 0.00 0.00 0.00 77 1008.3
20260510000539 83 0 0.0 0.0 0.00 0.00 0.00 76 1008.2
20260510000051 84 0 0.0 0.0 0.00 0.00 0.00 73 1008.2
20260509235538 84 0 0.0 0.0 0.00 0.00 0.00 72 1008.2
20260509235038 85 0 0.0 0.0 0.00 0.00 0.00 73 1008.1
20260509234549 85 0 0.0 0.0 0.00 0.00 0.00 68 1008.2
20260509234039 86 0 0.0 0.0 0.00 0.00 0.00 70 1008.2
20260509233538 86 0 0.0 0.0 0.00 0.00 0.00 70 1008.1
20260509233056 86 0 0.0 0.0 0.00 0.00 0.00 70 1008.2
20260509232540 86 0 0.0 0.0 0.00 0.00 0.00 74 1008.1
20260509232038 86 0 0.0 0.0 0.00 0.00 0.00 71 1008.2
20260509231548 85 0 0.0 0.0 0.00 0.00 0.00 72 1008.2
20260509231039 85 0 0.0 0.0 0.00 0.00 0.00 73 1008.2
20260509230540 86 0 0.0 0.0 0.00 0.00 0.00 72 1008.1
20260509230051 87 0 0.0 0.0 0.00 0.00 0.00 70 1008.0
20260509225539 87 0 0.0 0.0 0.00 0.00 0.00 70 1008.1
20260509225041 86 0 0.0 0.0 0.00 0.00 0.00 72 1007.9
20260509224546 86 0 0.0 0.0 0.00 0.00 0.00 74 1007.9
20260509224038 85 0 0.0 0.0 0.00 0.00 0.00 74 1007.8
20260509223538 85 0 0.0 0.0 0.00 0.00 0.00 75 1007.7
20260509223047 85 0 0.0 0.0 0.00 0.00 0.00 74 1007.7
20260509222540 85 0 0.0 0.0 0.00 0.00 0.00 74 1007.7
20260509222039 85 0 0.0 0.0 0.00 0.00 0.00 75 1007.5
20260509221549 84 0 0.0 0.0 0.00 0.00 0.00 75 1007.5
20260509221039 84 0 0.0 0.0 0.00 0.00 0.00 73 1007.5
20260509220536 85 0 0.0 0.0 0.00 0.00 0.00 73 1007.6
20260509220046 85 0 0.0 0.0 0.00 0.00 0.00 71 1007.5
20260509215537 86 0 0.0 0.0 0.00 0.00 0.00 69 1007.8
20260509215037 86 0 0.0 0.0 0.00 0.00 0.00 67 1007.9
20260509214605 86 0 0.0 1.0 0.00 0.00 0.00 64 1007.8
20260509214039 86 0 0.0 2.0 0.00 0.00 0.00 65 1007.9
20260509213539 87 0 0.0 2.0 0.00 0.00 0.00 61 1008.0
20260509213053 88 352 0.0 1.0 0.00 0.00 0.00 62 1008.0
20260509212535 89 0 0.0 4.0 0.00 0.00 0.00 59 1008.0
20260509212039 89 0 0.0 6.0 0.00 0.00 0.00 61 1008.0
20260509211549 90 352 0.0 9.0 0.00 0.00 0.00 60 1008.1
20260509211038 90 0 2.0 9.0 0.00 0.00 0.00 61 1008.2
20260509210540 90 347 0.0 4.0 0.00 0.00 0.00 60 1008.3
20260509210051 91 0 0.0 1.0 0.00 0.00 0.00 59 1008.2
20260509205536 90 0 0.0 1.0 0.00 0.00 0.00 64 1008.1
20260509205036 90 0 0.0 8.0 0.00 0.00 0.00 60 1008.1
20260509204547 90 0 0.0 8.0 0.00 0.00 0.00 58 1008.3
20260509204036 90 0 0.0 9.0 0.00 0.00 0.00 58 1008.4
20260509203539 91 0 0.0 9.0 0.00 0.00 0.00 60 1008.5
20260509203059 91 0 0.0 9.0 0.00 0.00 0.00 61 1008.6
20260509202536 91 0 0.0 8.0 0.00 0.00 0.00 58 1008.8
20260509202037 91 0 0.0 6.0 0.00 0.00 0.00 59 1008.7
20260509201548 91 0 0.0 6.0 0.00 0.00 0.00 63 1008.8
20260509201039 90 0 0.0 4.0 0.00 0.00 0.00 63 1009.0
20260509200541 91 0 0.0 3.0 0.00 0.00 0.00 58 1008.9
20260509200046 90 0 0.0 1.0 0.00 0.00 0.00 64 1009.1
20260509195541 88 0 0.0 4.0 0.00 0.00 0.00 62 1008.9
20260509195040 89 0 0.0 5.0 0.00 0.00 0.00 66 1009.0
20260509194550 89 0 1.0 6.0 0.00 0.00 0.00 67 1009.1
20260509194037 88 0 0.0 6.0 0.00 0.00 0.00 65 1008.9
20260509193540 89 0 0.0 6.0 0.00 0.00 0.00 64 1009.1
20260509193051 88 0 0.0 2.0 0.00 0.00 0.00 66 1009.3
20260509192536 87 0 0.0 5.0 0.00 0.00 0.00 70 1009.5
20260509192041 86 0 0.0 5.0 0.00 0.00 0.00 70 1009.4
20260509191559 88 0 0.0 4.0 0.00 0.00 0.00 66 1009.6
20260509191036 87 0 0.0 4.0 0.00 0.00 0.00 66 1009.8
20260509190541 86 0 0.0 1.0 0.00 0.00 0.00 68 1009.8
20260509190055 88 0 0.0 7.0 0.00 0.00 0.00 66 1009.9
20260509185539 87 0 1.0 7.0 0.00 0.00 0.00 71 1009.8
20260509185038 86 0 0.0 0.0 0.00 0.00 0.00 70 1010.0
20260509184555 87 0 0.0 7.0 0.00 0.00 0.00 72 1010.0
20260509184037 87 0 1.0 7.0 0.00 0.00 0.00 72 1010.0
20260509183537 87 0 0.0 7.0 0.00 0.00 0.00 73 1010.1
20260509183055 87 290 0.0 7.0 0.00 0.00 0.00 72 1010.2
20260509182537 85 0 0.0 0.0 0.00 0.00 0.00 77 1010.3
20260509182036 86 0 0.0 5.0 0.00 0.00 0.00 77 1010.2
20260509181546 84 0 0.0 5.0 0.00 0.00 0.00 76 1010.3
20260509181037 86 0 0.0 5.0 0.00 0.00 0.00 75 1010.5
20260509180537 85 0 0.0 1.0 0.00 0.00 0.00 75 1010.6
20260509180049 85 0 0.0 4.0 0.00 0.00 0.00 75 1010.6
20260509175536 85 0 0.0 4.0 0.00 0.00 0.00 73 1010.7
20260509175036 85 0 0.0 1.0 0.00 0.00 0.00 76 1010.7
20260509174603 83 0 0.0 0.0 0.00 0.00 0.00 78 1010.7
20260509174036 83 0 0.0 0.0 0.00 0.00 0.00 79 1010.8
20260509173535 82 0 0.0 1.0 0.00 0.00 0.00 82 1010.9
20260509173052 80 0 0.0 1.0 0.00 0.00 0.00 85 1011.1
20260509172539 80 0 0.0 0.0 0.00 0.00 0.00 84 1011.0
20260509172036 80 0 0.0 1.0 0.00 0.00 0.00 85 1011.2
20260509171547 80 0 0.0 1.0 0.00 0.00 0.00 84 1011.3
20260509171036 80 0 0.0 0.0 0.00 0.00 0.00 85 1011.2
20260509170536 80 0 0.0 0.0 0.00 0.00 0.00 85 1011.1
20260509170046 79 0 0.0 0.0 0.00 0.00 0.00 87 1011.1
20260509165536 78 0 0.0 0.0 0.00 0.00 0.00 86 1011.0
20260509165040 78 0 0.0 0.0 0.00 0.00 0.00 87 1011.1
20260509164545 78 0 0.0 0.0 0.00 0.00 0.00 87 1011.2
20260509164037 78 0 0.0 0.0 0.00 0.00 0.00 87 1011.1
20260509163536 78 0 0.0 0.0 0.00 0.00 0.00 87 1011.1
20260509163047 78 0 0.0 0.0 0.00 0.00 0.00 88 1011.1
20260509162536 78 0 0.0 0.0 0.00 0.00 0.00 88 1011.2
20260509162036 78 0 0.0 0.0 0.00 0.00 0.00 88 1011.2
20260509161549 78 0 0.0 0.0 0.00 0.00 0.00 89 1011.2
20260509161038 78 0 0.0 0.0 0.00 0.00 0.00 88 1011.3
20260509160539 78 0 0.0 0.0 0.00 0.00 0.00 88 1011.3
20260509160050 77 0 0.0 0.0 0.00 0.00 0.00 89 1011.1
20260509155537 77 0 0.0 0.0 0.00 0.00 0.00 88 1011.1
20260509155036 77 0 0.0 0.0 0.00 0.00 0.00 88 1011.2
20260509154553 77 0 0.0 0.0 0.00 0.00 0.00 89 1011.2
20260509154036 76 0 0.0 0.0 0.00 0.00 0.00 90 1011.3
20260509153536 76 0 0.0 0.0 0.00 0.00 0.00 90 1011.3
20260509153055 76 0 0.0 0.0 0.00 0.00 0.00 90 1011.4
20260509152539 76 0 0.0 0.0 0.00 0.00 0.00 90 1011.3
20260509152037 76 0 0.0 0.0 0.00 0.00 0.00 90 1011.3
20260509151548 76 0 0.0 0.0 0.00 0.00 0.00 90 1011.3
20260509151037 76 0 0.0 0.0 0.00 0.00 0.00 89 1011.2
20260509150540 77 0 0.0 10.0 0.00 0.00 0.00 89 1011.1
20260509150051 77 0 0.0 10.0 0.00 0.00 0.00 89 1010.8
20260509145536 77 234 1.0 10.0 0.00 0.00 0.00 89 1010.3
20260509145037 77 0 1.0 10.0 0.00 0.00 0.00 90 1010.2
20260509144550 77 0 0.0 10.0 0.00 0.00 0.00 90 1010.0
20260509144037 77 235 1.0 10.0 0.00 0.00 0.00 90 1009.9
20260509143537 77 0 1.0 10.0 0.00 0.00 0.00 89 1010.0
20260509143047 77 0 1.0 9.0 0.00 0.00 0.00 90 1010.1
20260509142536 77 0 0.0 9.0 0.00 0.00 0.00 92 1010.0
20260509142036 76 0 0.0 8.0 0.00 0.00 0.00 93 1009.9
20260509141545 75 0 0.0 8.0 0.00 0.00 0.00 93 1010.1
20260509141038 75 0 0.0 0.0 0.00 0.00 0.00 93 1010.2
20260509140536 75 0 0.0 7.0 0.00 0.00 0.00 93 1010.2
20260509140055 75 0 0.0 7.0 0.00 0.00 0.00 94 1010.3
20260509135539 75 209 0.0 4.0 0.00 0.00 0.00 94 1010.5
20260509135037 74 0 0.0 6.0 0.00 0.00 0.00 94 1010.4
20260509134548 74 0 0.0 6.0 0.00 0.00 0.00 94 1010.3
20260509134036 74 0 0.0 5.0 0.00 0.00 0.00 94 1010.3
20260509133537 74 0 0.0 0.0 0.00 0.00 0.00 94 1010.4
20260509133050 74 0 0.0 3.0 0.00 0.00 0.00 94 1010.7
20260509132536 73 0 0.0 3.0 0.00 0.00 0.00 94 1010.4
20260509132036 73 0 0.0 0.0 0.00 0.00 0.00 94 1010.6
20260509131549 73 0 0.0 0.0 0.00 0.00 0.00 94 1010.4
20260509131036 73 0 0.0 0.0 0.00 0.00 0.00 94 1010.3
20260509130536 73 0 0.0 1.0 0.00 0.00 0.00 94 1010.2
20260509130100 73 0 0.0 2.0 0.00 0.00 0.00 94 1010.3
20260509125536 73 0 0.0 3.0 0.00 0.00 0.00 94 1010.2
20260509125036 73 0 0.0 3.0 0.00 0.00 0.00 94 1010.1
20260509124554 73 0 0.0 0.0 0.00 0.00 0.00 94 1010.0
20260509124038 73 0 0.0 0.0 0.00 0.00 0.00 94 1010.3
20260509123541 73 0 0.0 0.0 0.00 0.00 0.00 94 1010.4
20260509123044 73 0 0.0 0.0 0.00 0.00 0.00 94 1010.5
20260509122538 73 0 0.0 0.0 0.00 0.00 0.00 94 1010.7
20260509122038 73 0 0.0 0.0 0.00 0.00 0.00 94 1010.7
20260509121557 73 0 0.0 0.0 0.00 0.00 0.00 94 1010.6
20260509121039 73 0 0.0 0.0 0.00 0.00 0.00 94 1010.8
20260509120542 73 0 0.0 0.0 0.00 0.00 0.00 94 1010.7
20260509120051 73 0 0.0 0.0 0.00 0.00 0.00 94 1010.3
20260509115537 73 0 0.0 0.0 0.00 0.00 0.00 94 1010.1
20260509115037 73 0 0.0 0.0 0.00 0.00 0.00 94 1010.1
20260509114557 73 0 0.0 0.0 0.00 0.00 0.00 94 1010.4
20260509114038 73 0 0.0 3.0 0.00 0.00 0.00 94 1010.4
20260509113538 73 0 0.0 3.0 0.00 0.00 0.00 94 1010.6
20260509113053 73 0 0.0 3.0 0.00 0.00 0.00 94 1010.4
20260509112538 73 0 0.0 1.0 0.00 0.00 0.00 93 1010.5
20260509112038 73 0 0.0 1.0 0.00 0.00 0.00 94 1010.3
20260509111548 73 0 0.0 0.0 0.00 0.00 0.00 94 1010.3
20260509111038 73 0 0.0 0.0 0.00 0.00 0.00 94 1010.3
20260509110537 73 0 0.0 0.0 0.00 0.00 0.00 94 1010.4
20260509110050 73 0 0.0 0.0 0.00 0.00 0.00 93 1010.4
20260509105542 73 0 0.0 0.0 0.00 0.00 0.00 93 1010.4
20260509105038 73 0 0.0 0.0 0.00 0.00 0.00 93 1010.6
20260509104551 73 0 0.0 0.0 0.00 0.00 0.00 93 1010.5
20260509104037 73 0 0.0 0.0 0.00 0.00 0.00 93 1010.7
20260509103537 73 0 0.0 0.0 0.00 0.00 0.00 93 1010.8
20260509103059 73 0 0.0 0.0 0.00 0.00 0.00 93 1010.6
20260509102538 73 0 0.0 0.0 0.00 0.00 0.00 93 1010.8
20260509102039 73 0 0.0 0.0 0.00 0.00 0.00 93 1010.8
20260509101559 73 0 0.0 0.0 0.00 0.00 0.00 93 1010.8
20260509101039 73 0 0.0 0.0 0.00 0.00 0.00 93 1010.6
20260509100538 73 0 0.0 0.0 0.00 0.00 0.00 93 1010.4
20260509100047 73 0 0.0 0.0 0.00 0.00 0.00 93 1010.3
20260509095539 73 0 0.0 0.0 0.00 0.00 0.00 93 1010.0
20260509095038 73 0 0.0 0.0 0.00 0.00 0.00 93 1009.9
20260509094559 72 0 0.0 0.0 0.00 0.00 0.00 93 1009.9
20260509094039 73 0 0.0 0.0 0.00 0.00 0.00 93 1010.0
20260509093537 73 0 0.0 0.0 0.00 0.00 0.00 93 1010.0
20260509093050 73 0 0.0 0.0 0.00 0.00 0.00 93 1010.1
20260509092536 73 0 0.0 0.0 0.00 0.00 0.00 93 1010.1
20260509092036 73 0 0.0 0.0 0.00 0.00 0.00 93 1010.0
20260509091545 72 0 0.0 0.0 0.00 0.00 0.00 93 1009.9
20260509091039 72 0 0.0 0.0 0.00 0.00 0.00 93 1009.9
20260509090540 72 0 0.0 0.0 0.00 0.00 0.00 93 1010.0
20260509090058 73 0 0.0 0.0 0.00 0.00 0.00 93 1010.2
20260509085537 73 0 0.0 0.0 0.00 0.00 0.00 93 1010.2
20260509085036 73 0 0.0 0.0 0.00 0.00 0.00 93 1010.2
20260509084548 73 0 0.0 0.0 0.00 0.00 0.00 93 1010.4
20260509084035 73 0 0.0 0.0 0.00 0.00 0.00 93 1010.7
20260509083536 73 0 0.0 0.0 0.00 0.00 0.00 93 1010.7
20260509083056 73 0 0.0 0.0 0.00 0.00 0.00 93 1010.6
20260509082536 73 0 0.0 0.0 0.00 0.00 0.00 93 1010.6